When you browse on this site, cookies collect data to enhance your experience and personalize the content and advertising you see.
Visit our Privacy Policy to learn more. By continuing to use the site, you agree to this use of cookies and data.
  • In Austria
  • List of Countries
  • For 7 days
  • Water Temperature
  • Satellite Maps
  • Weather Map
  • News
  • Weather Widgets
  • user-avatar
    Login

    Hourly Weather Tirana

    Today, 20 November, Tuesday

    Time Temperature Precipitation Wind Pressure Humidity
    00:00 +12°C° 0.5 mm 8 mps 750 mmHg 76%
    01:00 +12°C° 0.5 mm 8 mps 750 mmHg 77%
    02:00 +12°C° 2.2 mm 8 mps 750 mmHg 79%
    03:00 +12°C° 2.2 mm 8 mps 750 mmHg 81%
    04:00 +12°C° 2.2 mm 9 mps 750 mmHg 83%
    05:00 +12°C° 2.1 mm 9 mps 750 mmHg 83%
    06:00 +12°C° 2.1 mm 9 mps 750 mmHg 83%
    07:00 +12°C° 2.1 mm 9 mps 750 mmHg 83%
    08:00 +12°C° 3.1 mm 9 mps 750 mmHg 83%
    09:00 +12°C° 3.1 mm 9 mps 750 mmHg 83%
    10:00 +13°C° 3.1 mm 9 mps 750 mmHg 83%
    11:00 +13°C° 2.3 mm 9 mps 750 mmHg 84%
    12:00 +13°C° 2.3 mm 8 mps 750 mmHg 84%
    13:00 +13°C° 2.3 mm 8 mps 749 mmHg 84%
    14:00 +13°C° 1.2 mm 8 mps 749 mmHg 84%
    15:00 +13°C° 1.2 mm 8 mps 749 mmHg 85%
    16:00 +13°C° 1.2 mm 8 mps 749 mmHg 85%
    17:00 +13°C° 0.7 mm 8 mps 749 mmHg 85%
    18:00 +13°C° 0.7 mm 8 mps 749 mmHg 85%
    19:00 +13°C° 0.7 mm 8 mps 749 mmHg 85%
    20:00 +13°C° 1.2 mm 8 mps 749 mmHg 85%
    21:00 +13°C° 1.2 mm 8 mps 749 mmHg 85%
    22:00 +14°C° 1.2 mm 7 mps 749 mmHg 85%
    23:00 +14°C° 1.9 mm 7 mps 749 mmHg 87%

    Tomorrow, 21 November, Wednesday

    Time Temperature Precipitation Wind Pressure Humidity
    00:00 +14°C° 1.9 mm 7 mps 749 mmHg 88%
    01:00 +14°C° 1.9 mm 6 mps 749 mmHg 90%
    02:00 +13°C° 1.5 mm 6 mps 749 mmHg 89%
    03:00 +13°C° 1.5 mm 5 mps 749 mmHg 88%
    04:00 +13°C° 1.5 mm 4 mps 748 mmHg 88%
    05:00 +13°C° 0.6 mm 4 mps 749 mmHg 87%
    06:00 +13°C° 0.6 mm 4 mps 749 mmHg 87%
    07:00 +13°C° 0.6 mm 4 mps 749 mmHg 87%
    08:00 +14°C° 0.5 mm 4 mps 750 mmHg 82%
    09:00 +17°C° 0.5 mm 3 mps 750 mmHg 77%
    10:00 +18°C° 0.5 mm 3 mps 750 mmHg 72%
    11:00 +18°C° 0.7 mm 4 mps 750 mmHg 71%
    12:00 +18°C° 0.7 mm 4 mps 750 mmHg 71%
    13:00 +18°C° 0.7 mm 4 mps 751 mmHg 70%
    14:00 +17°C° 0.4 mm 4 mps 751 mmHg 75%
    15:00 +17°C° 0.4 mm 4 mps 751 mmHg 79%
    16:00 +15°C° 0.4 mm 4 mps 751 mmHg 84%
    17:00 +14°C° 0.7 mm 4 mps 752 mmHg 87%
    18:00 +13°C° 0.7 mm 4 mps 752 mmHg 89%
    19:00 +13°C° 0.7 mm 4 mps 753 mmHg 92%
    20:00 +13°C° 0.7 mm 4 mps 753 mmHg 91%
    21:00 +13°C° 0.7 mm 3 mps 753 mmHg 90%
    22:00 +13°C° 0.7 mm 3 mps 754 mmHg 89%
    23:00 +13°C° 0.5 mm 3 mps 754 mmHg 89%

    Day after tomorrow, 22 November, Thursday

    Time Temperature Precipitation Wind Pressure Humidity
    00:00 +12°C° 0.5 mm 3 mps 754 mmHg 89%
    01:00 +12°C° 0.5 mm 3 mps 754 mmHg 90%
    02:00 +12°C° 0.3 mm 3 mps 754 mmHg 90%
    03:00 +12°C° 0.3 mm 3 mps 754 mmHg 91%
    04:00 +12°C° 0.3 mm 3 mps 754 mmHg 92%
    05:00 +12°C° 0.2 mm 3 mps 755 mmHg 91%
    06:00 +12°C° 0.2 mm 3 mps 755 mmHg 91%
    07:00 +13°C° 0.2 mm 2 mps 755 mmHg 90%
    08:00 +15°C° 0.2 mm 2 mps 755 mmHg 85%
    09:00 +16°C° 0.2 mm 2 mps 756 mmHg 79%
    10:00 +17°C° 0.2 mm 2 mps 756 mmHg 74%
    11:00 +17°C° 0.5 mm 2 mps 755 mmHg 71%
    12:00 +18°C° 0.5 mm 2 mps 755 mmHg 69%
    13:00 +18°C° 0.5 mm 2 mps 755 mmHg 66%
    14:00 +17°C° 0.5 mm 2 mps 755 mmHg 71%
    15:00 +16°C° 0.5 mm 2 mps 755 mmHg 75%
    16:00 +16°C° 0.5 mm 2 mps 755 mmHg 79%
    17:00 +15°C° 0.1 mm 2 mps 756 mmHg 82%
    18:00 +14°C° 0.1 mm 2 mps 756 mmHg 84%
    19:00 +14°C° 0.1 mm 2 mps 756 mmHg 86%
    20:00 +13°C° 0.1 mm 2 mps 757 mmHg 86%
    21:00 +13°C° 0.1 mm 2 mps 757 mmHg 86%
    22:00 +13°C° 0.1 mm 2 mps 758 mmHg 86%
    23:00 +13°C° 0.1 mm 2 mps 758 mmHg 85%

    23 November, Friday

    Time Temperature Precipitation Wind Pressure Humidity
    00:00 +12°C° 0.1 mm 2 mps 758 mmHg 84%
    01:00 +12°C° 0.1 mm 2 mps 758 mmHg 84%
    02:00 +12°C° 0.1 mm 2 mps 758 mmHg 83%
    03:00 +12°C° 0.1 mm 2 mps 758 mmHg 83%
    04:00 +12°C° 0.1 mm 2 mps 758 mmHg 82%
    05:00 +10°C° 0 mm 2 mps 759 mmHg 82%
    06:00 +10°C° 0 mm 2 mps 759 mmHg 81%
    07:00 +10°C° 0 mm 2 mps 759 mmHg 81%
    08:00 +13°C° 0 mm 1 mps 760 mmHg 74%
    09:00 +15°C° 0 mm 1 mps 760 mmHg 68%
    10:00 +16°C° 0 mm 1 mps 760 mmHg 61%
    11:00 +18°C° 0 mm 1 mps 760 mmHg 59%
    12:00 +17°C° 0 mm 2 mps 760 mmHg 56%
    13:00 +18°C° 0 mm 2 mps 760 mmHg 54%
    14:00 +17°C° 0 mm 2 mps 760 mmHg 58%
    15:00 +16°C° 0 mm 2 mps 760 mmHg 62%
    16:00 +15°C° 0 mm 2 mps 760 mmHg 67%
    17:00 +14°C° 0 mm 2 mps 760 mmHg 69%
    18:00 +13°C° 0 mm 2 mps 760 mmHg 71%
    19:00 +13°C° 0 mm 2 mps 761 mmHg 73%
    20:00 +12°C° 0 mm 2 mps 761 mmHg 74%
    21:00 +12°C° 0 mm 2 mps 761 mmHg 75%
    22:00 +12°C° 0 mm 2 mps 761 mmHg 76%
    23:00 +12°C° 0 mm 2 mps 761 mmHg 76%

    24 November, Saturday

    Time Temperature Precipitation Wind Pressure Humidity
    00:00 +10°C° 0 mm 2 mps 761 mmHg 76%
    01:00 +10°C° 0 mm 2 mps 761 mmHg 77%
    02:00 +10°C° 0 mm 2 mps 761 mmHg 77%
    03:00 +10°C° 0 mm 2 mps 760 mmHg 77%
    04:00 +9°C° 0 mm 2 mps 760 mmHg 77%
    05:00 +9°C° 0 mm 2 mps 760 mmHg 76%
    06:00 +9°C° 0 mm 2 mps 760 mmHg 76%
    07:00 +9°C° 0 mm 2 mps 760 mmHg 76%
    08:00 +12°C° 0 mm 2 mps 760 mmHg 69%
    09:00 +14°C° 0 mm 2 mps 760 mmHg 62%
    10:00 +16°C° 0 mm 2 mps 760 mmHg 55%
    11:00 +17°C° 0 mm 2 mps 760 mmHg 52%
    12:00 +17°C° 0 mm 2 mps 759 mmHg 49%
    13:00 +18°C° 0 mm 2 mps 759 mmHg 46%
    14:00 +17°C° 0 mm 2 mps 758 mmHg 50%
    15:00 +16°C° 0 mm 2 mps 758 mmHg 55%
    16:00 +15°C° 0 mm 2 mps 758 mmHg 59%
    17:00 +14°C° 0 mm 2 mps 758 mmHg 60%
    18:00 +12°C° 0 mm 3 mps 758 mmHg 62%
    19:00 +12°C° 0 mm 3 mps 758 mmHg 63%
    20:00 +11°C° 0 mm 3 mps 758 mmHg 62%
    21:00 +11°C° 0 mm 3 mps 758 mmHg 62%
    22:00 +11°C° 0 mm 4 mps 758 mmHg 61%
    23:00 +11°C° 0 mm 4 mps 758 mmHg 60%

    25 November, Sunday

    Time Temperature Precipitation Wind Pressure Humidity
    00:00 +11°C° 0 mm 4 mps 758 mmHg 60%
    01:00 +10°C° 0 mm 4 mps 758 mmHg 59%
    02:00 +10°C° 0 mm 4 mps 757 mmHg 60%
    03:00 +9°C° 0 mm 5 mps 757 mmHg 61%
    04:00 +9°C° 0 mm 5 mps 757 mmHg 62%
    05:00 +9°C° 0 mm 5 mps 757 mmHg 64%
    06:00 +9°C° 0 mm 5 mps 757 mmHg 65%
    07:00 +10°C° 0 mm 5 mps 756 mmHg 66%
    08:00 +12°C° 0.1 mm 5 mps 756 mmHg 64%
    09:00 +14°C° 0.1 mm 5 mps 756 mmHg 61%
    10:00 +16°C° 0.1 mm 5 mps 756 mmHg 58%
    11:00 +16°C° 0.2 mm 6 mps 755 mmHg 61%
    12:00 +16°C° 0.2 mm 6 mps 755 mmHg 64%
    13:00 +16°C° 0.2 mm 6 mps 754 mmHg 67%
    14:00 +16°C° 0.7 mm 6 mps 754 mmHg 71%
    15:00 +15°C° 0.7 mm 6 mps 753 mmHg 75%
    16:00 +15°C° 0.7 mm 6 mps 753 mmHg 78%
    17:00 +15°C° 1 mm 6 mps 753 mmHg 81%
    18:00 +14°C° 1 mm 6 mps 753 mmHg 84%
    19:00 +14°C° 1 mm 6 mps 752 mmHg 88%
    20:00 +14°C° 1.4 mm 6 mps 752 mmHg 88%
    21:00 +14°C° 1.4 mm 6 mps 752 mmHg 89%
    22:00 +14°C° 1.4 mm 6 mps 752 mmHg 89%
    23:00 +14°C° 1.2 mm 7 mps 751 mmHg 90%
    Show more